Home   Weather   Male   Past weeks

Flag for Maldives Past Weather in Male, Maldives — Yesterday and Last 2 Weeks

Now
86 °F

Scattered clouds.


Feels Like: 99 °F
Forecast: 84 / 90 °F
Wind: 8 mph from West

Location: Male Airport

Current Time: Apr 26, 2017 at 6:50:34 pm

Latest Report: Apr 26, 2017 at 6:00 pm


Visibility: N/A

Pressure: 29.80 "Hg

Humidity: 79%

Dew Point: 79 °F

Location of MaleLocation

Past Weather in Male — Graph

°F

Male Temperature Yesterday

Maximum temperature yesterday: 88 °F (at 3:00 pm)
Minimum temperature yesterday: 81 °F (at 8:00 am)
Average temperature yesterday: 85 °F

High & Low Weather Summary for the Past Weeks

 TemperatureHumidityPressure
High91 °F (Apr 20, 12:00 pm)89% (Apr 13, 5:00 am)29.92 "Hg (Apr 13, 5:00 am)
Low81 °F (Apr 25, 8:00 am)67% (Apr 20, 11:00 am)29.74 "Hg (Apr 11, 4:00 pm)
Average87 °F78%29.82 "Hg
* Reported Apr 11 4:00 pm — Apr 26 4:00 pm, Male, Weather by CustomWeather, © 2017

Note: Actual official high and low records may vary slightly from our data, if they occured in-between our weather recording intervals... More about our weather records

Advertising

Male Weather History for the Previous 24 Hours

Scroll right to see more
 ConditionsComfort  
Time TempWeatherWind HumidityBarometerVisibility
4:00 pm
Wed, Apr 26
88 °FPassing clouds.9 mph75%29.80 "HgN/A
3:00 pm90 °FPassing clouds.9 mph71%29.80 "HgN/A
2:00 pm88 °FPassing clouds.8 mph75%29.83 "HgN/A
1:00 pm88 °FPassing clouds.9 mph75%29.86 "HgN/A
12:00 pm88 °FPassing clouds.8 mph70%29.86 "HgN/A
11:00 am88 °FPassing clouds.7 mph70%29.89 "HgN/A
10:00 am88 °FScattered clouds.7 mph70%29.92 "HgN/A
9:00 am86 °FScattered clouds.8 mph75%29.92 "HgN/A
8:00 am86 °FPassing clouds.7 mph75%29.89 "HgN/A
7:00 am84 °FScattered clouds.7 mph84%29.86 "HgN/A
6:00 am84 °FPartly sunny.7 mph79%29.83 "HgN/A
5:00 am84 °FPassing clouds.7 mph79%29.83 "HgN/A
4:00 am84 °FPassing clouds.7 mph79%29.80 "HgN/A
3:00 am84 °FPassing clouds.7 mph79%29.83 "HgN/A
2:00 am84 °FPassing clouds.7 mph74%29.83 "HgN/A
1:00 am84 °FPassing clouds.6 mph74%29.83 "HgN/A
12:00 am84 °FPassing clouds.3 mph74%29.86 "HgN/A
11:00 pm
Tue, Apr 25
84 °FPassing clouds.3 mph74%29.86 "HgN/A
10:00 pm84 °FPassing clouds.3 mph74%29.89 "HgN/A
9:00 pm84 °FPassing clouds.3 mph74%29.86 "HgN/A
8:00 pm84 °FPassing clouds.5 mph74%29.86 "HgN/A
7:00 pm84 °FPassing clouds.5 mph79%29.83 "HgN/A
6:00 pm84 °FPartly sunny.6 mph79%29.83 "HgN/A
Weather by CustomWeather, © 2017

See weather overviewHow to use our weather pages